Reno, NV

5:07 AM PDT on October 01, 2016 (GMT -0700)
Reno - Stead

Weather History for KRTS - April, 2013

Change the Weather History Date:

Saturday, April 6, 2013

  Actual Average (KRNO) Record (KRNO)
Temperature  
Mean Temperature 50 °F 49 °F  
Max Temperature 59 °F 61 °F 85 °F (1989)
Min Temperature 41 °F 36 °F 19 °F (1941)
Degree Days  
Heating Degree Days 15 16  
Month to date heating degree days 100  
Since 1 July heating degree days 4336  
Cooling Degree Days 0 0  
Month to date cooling degree days 0  
Year to date cooling degree days 0  
Moisture  
Dew Point 28 °F    
Average Humidity 46    
Maximum Humidity 61    
Minimum Humidity 27    
Precipitation  
Precipitation 0.00 in 0.02 in 0.20 in (1893)
Month to date precipitation 0.10  
Year to date precipitation 2.91  
Snow  
Snow 0.00 in 0.10 in 0.40 in (1982)
Month to date snowfall 0.2  
Since 1 July snowfall 21.2  
Snow Depth -    
Sea Level Pressure  
Sea Level Pressure 30.11 in    
Wind  
Wind Speed 14 mph (West)    
Max Wind Speed 26 mph    
Max Gust Speed 33 mph    
Visibility 10 miles    
Events      
T = Trace of Precipitation, MM = Missing Value Source: NWS Daily Summary

Daily Weather History Graph

Daily Weather History Graph

Search for Another Location

Airport or City:

Trip Planner

Search our weather history database for the weather conditions in past years. The results will help you decide how hot, cold, wet, or windy it might be!

Date:

Astronomy

Apr. 06, 2013 Rise Set
Actual Time 6:35 AM PDT 7:28 PM PDT
Civil Twilight 6:07 AM PDT 7:56 PM PDT
Nautical Twilight 5:35 AM PDT 8:28 PM PDT
Astronomical Twilight 5:01 AM PDT 9:02 PM PDT
Moon 4:21 AM PDT (4/6) 4:03 PM PDT (4/6)
Length of Visible Light 13h 48m
Length of Day
12h 53m
Waning Crescent, 14% of the Moon is Illuminated
Apr 6
Waning Crescent
Apr 10
New
Apr 18
First Quarter
Apr 25
Full
May 2
Last Quarter

Hourly Weather History & Observations

Time (PDT) Temp. Windchill Dew Point Humidity Pressure Visibility Wind Dir Wind Speed Gust Speed Precip Events Conditions
12:15 AM 44.6 °F 36.6 °F 23.0 °F 43% 30.12 in 10.0 mi West 19.6 mph 26.5 mph N/A   Scattered Clouds
12:35 AM 44.6 °F 37.4 °F 24.8 °F 46% 30.13 in 10.0 mi West 16.1 mph 25.3 mph N/A   Clear
12:55 AM 42.8 °F 36.2 °F 26.6 °F 53% 30.14 in 10.0 mi West 12.7 mph - N/A   Clear
1:15 AM 42.8 °F 37.0 °F 26.6 °F 53% 30.14 in 10.0 mi West 10.4 mph - N/A   Mostly Cloudy
1:35 AM 42.8 °F 35.4 °F 24.8 °F 49% 30.13 in 10.0 mi WSW 15.0 mph 20.7 mph N/A   Scattered Clouds
1:55 AM 44.6 °F 38.1 °F 24.8 °F 46% 30.13 in 10.0 mi WSW 13.8 mph 20.7 mph N/A   Clear
2:15 AM 42.8 °F 36.6 °F 24.8 °F 49% 30.13 in 10.0 mi WSW 11.5 mph - N/A   Clear
2:35 AM 42.8 °F 36.2 °F 24.8 °F 49% 30.13 in 10.0 mi West 12.7 mph - N/A   Partly Cloudy
2:55 AM 41.0 °F 35.8 °F 24.8 °F 53% 30.13 in 10.0 mi West 8.1 mph - N/A   Mostly Cloudy
3:15 AM 41.0 °F 34.3 °F 26.6 °F 57% 30.13 in 10.0 mi WNW 11.5 mph - N/A   Mostly Cloudy
3:35 AM 42.8 °F 36.2 °F 26.6 °F 53% 30.13 in 10.0 mi NW 12.7 mph 17.3 mph N/A   Overcast
3:55 AM 42.8 °F 36.6 °F 26.6 °F 53% 30.12 in 10.0 mi NW 11.5 mph - N/A   Overcast
4:15 AM 42.8 °F 37.5 °F 26.6 °F 53% 30.11 in 10.0 mi NW 9.2 mph - N/A   Overcast
4:35 AM 42.8 °F 37.0 °F 26.6 °F 53% 30.11 in 10.0 mi NW 10.4 mph - N/A   Overcast
4:55 AM 41.0 °F 36.4 °F 26.6 °F 57% 30.10 in 10.0 mi NW 6.9 mph - N/A   Mostly Cloudy
5:15 AM 41.0 °F 36.4 °F 26.6 °F 57% 30.10 in 10.0 mi NW 6.9 mph - N/A   Scattered Clouds
5:35 AM 44.6 °F 37.8 °F 24.8 °F 46% 30.11 in 10.0 mi West 15.0 mph - N/A   Scattered Clouds
5:55 AM 44.6 °F 37.4 °F 26.6 °F 49% 30.12 in 10.0 mi WSW 16.1 mph 21.9 mph N/A   Mostly Cloudy
6:15 AM 44.6 °F 37.8 °F 28.4 °F 53% 30.12 in 10.0 mi SW 15.0 mph - N/A   Overcast
6:35 AM 44.6 °F 38.4 °F 26.6 °F 49% 30.12 in 10.0 mi WSW 12.7 mph 20.7 mph N/A   Overcast
6:55 AM 42.8 °F 36.2 °F 28.4 °F 57% 30.13 in 10.0 mi SW 12.7 mph - N/A   Overcast
7:15 AM 42.8 °F 35.8 °F 28.4 °F 57% 30.14 in 10.0 mi WSW 13.8 mph 18.4 mph N/A   Overcast
7:35 AM 42.8 °F 34.0 °F 28.4 °F 57% 30.13 in 10.0 mi SW 20.7 mph 26.5 mph N/A   Overcast
7:55 AM 41.0 °F 34.7 °F 28.4 °F 61% 30.15 in 10.0 mi West 10.4 mph - N/A   Overcast
8:15 AM 42.8 °F 36.6 °F 28.4 °F 57% 30.15 in 10.0 mi WSW 11.5 mph 18.4 mph N/A   Overcast
8:35 AM 44.6 °F 41.4 °F 30.2 °F 57% 30.15 in 10.0 mi WSW 5.8 mph - N/A   Overcast
8:55 AM 44.6 °F 42.2 °F 30.2 °F 57% 30.14 in 10.0 mi NW 4.6 mph - N/A   Overcast
9:15 AM 44.6 °F 43.1 °F 30.2 °F 57% 30.14 in 10.0 mi North 3.5 mph - N/A   Overcast
9:35 AM 46.4 °F 45.2 °F 32.0 °F 57% 30.14 in 10.0 mi West 3.5 mph - N/A   Overcast
9:55 AM 48.2 °F - 32.0 °F 54% 30.13 in 10.0 mi West 11.5 mph - N/A   Overcast
10:15 AM 48.2 °F - 32.0 °F 54% 30.14 in 10.0 mi WNW 10.4 mph 16.1 mph N/A   Overcast
10:35 AM 50.0 °F - 32.0 °F 50% 30.13 in 10.0 mi SW 6.9 mph - N/A   Overcast
10:55 AM 51.8 °F - 32.0 °F 47% 30.13 in 10.0 mi West 9.2 mph - N/A   Overcast
11:15 AM 51.8 °F - 32.0 °F 47% 30.13 in 10.0 mi WSW 10.4 mph - N/A   Overcast
11:35 AM 51.8 °F - 32.0 °F 47% 30.13 in 10.0 mi SW 10.4 mph 17.3 mph N/A   Overcast
11:55 AM 51.8 °F - 32.0 °F 47% 30.13 in 10.0 mi SW 11.5 mph 20.7 mph N/A   Overcast
12:15 PM 53.6 °F - 32.0 °F 44% 30.13 in 10.0 mi WSW 10.4 mph 16.1 mph N/A   Overcast
12:35 PM 53.6 °F - 32.0 °F 44% 30.12 in 10.0 mi WSW 12.7 mph 18.4 mph N/A   Overcast
12:55 PM 57.2 °F - 30.2 °F 36% 30.11 in 10.0 mi NW 13.8 mph 27.6 mph N/A   Overcast
1:15 PM 57.2 °F - 26.6 °F 31% 30.11 in 10.0 mi West 20.7 mph 29.9 mph N/A   Mostly Cloudy
1:35 PM 59.0 °F - 26.6 °F 29% 30.10 in 10.0 mi West 24.2 mph 33.4 mph N/A   Mostly Cloudy
1:55 PM 57.2 °F - 26.6 °F 31% 30.10 in 10.0 mi WNW 19.6 mph 25.3 mph N/A   Mostly Cloudy
2:15 PM 57.2 °F - 28.4 °F 33% 30.10 in 10.0 mi West 16.1 mph 23.0 mph N/A   Mostly Cloudy
2:35 PM 57.2 °F - 26.6 °F 31% 30.09 in 10.0 mi WNW 19.6 mph 23.0 mph N/A   Scattered Clouds
2:55 PM 57.2 °F - 26.6 °F 31% 30.08 in 10.0 mi West 13.8 mph 25.3 mph N/A   Partly Cloudy
3:15 PM 57.2 °F - 24.8 °F 29% 30.08 in 10.0 mi WSW 17.3 mph 27.6 mph N/A   Clear
3:35 PM 57.2 °F - 24.8 °F 29% 30.08 in 10.0 mi West 19.6 mph 25.3 mph N/A   Clear
3:55 PM 57.2 °F - 24.8 °F 29% 30.08 in 10.0 mi West 18.4 mph 27.6 mph N/A   Clear
4:15 PM 57.2 °F - 24.8 °F 29% 30.08 in 10.0 mi WSW 23.0 mph 27.6 mph N/A   Clear
4:35 PM 57.2 °F - 23.0 °F 27% 30.08 in 10.0 mi WSW 26.5 mph 31.1 mph N/A   Clear
4:55 PM 55.4 °F - 24.8 °F 31% 30.08 in 10.0 mi WSW 17.3 mph 28.8 mph N/A   Clear
5:15 PM 55.4 °F - 24.8 °F 31% 30.08 in 10.0 mi West 17.3 mph 28.8 mph N/A   Partly Cloudy
5:35 PM 53.6 °F - 24.8 °F 33% 30.08 in 10.0 mi WSW 20.7 mph 31.1 mph N/A   Clear
5:55 PM 53.6 °F - 23.0 °F 30% 30.08 in 10.0 mi West 20.7 mph 26.5 mph N/A   Clear
6:15 PM 53.6 °F - 23.0 °F 30% 30.08 in 10.0 mi West 23.0 mph 27.6 mph N/A   Clear
6:35 PM 50.0 °F - 24.8 °F 37% 30.08 in 10.0 mi West 19.6 mph 26.5 mph N/A   Clear
6:55 PM 50.0 °F - 24.8 °F 37% 30.08 in 10.0 mi West 19.6 mph 27.6 mph N/A   Clear
7:15 PM 48.2 °F - 26.6 °F 43% 30.08 in 10.0 mi West 18.4 mph 23.0 mph N/A   Clear
7:35 PM 48.2 °F - 26.6 °F 43% 30.08 in 10.0 mi West 13.8 mph 19.6 mph N/A   Clear
7:55 PM 46.4 °F 42.4 °F 26.6 °F 46% 30.10 in 10.0 mi WNW 8.1 mph - N/A   Clear
8:15 PM 46.4 °F 41.5 °F 24.8 °F 43% 30.10 in 10.0 mi West 10.4 mph - N/A   Partly Cloudy
8:35 PM 46.4 °F 40.1 °F 26.6 °F 46% 30.10 in 10.0 mi West 15.0 mph 21.9 mph N/A   Mostly Cloudy
8:55 PM 46.4 °F 39.5 °F 28.4 °F 50% 30.10 in 10.0 mi West 17.3 mph - N/A   Mostly Cloudy
9:15 PM 46.4 °F 40.1 °F 28.4 °F 50% 30.11 in 10.0 mi West 15.0 mph 20.7 mph N/A   Scattered Clouds
9:35 PM 46.4 °F 41.5 °F 28.4 °F 50% 30.10 in 10.0 mi West 10.4 mph 20.7 mph N/A   Scattered Clouds
9:55 PM 46.4 °F 40.4 °F 28.4 °F 50% 30.10 in 10.0 mi West 13.8 mph 23.0 mph N/A   Clear
10:15 PM 46.4 °F 41.5 °F 30.2 °F 53% 30.09 in 10.0 mi WSW 10.4 mph 19.6 mph N/A   Clear
10:35 PM 44.6 °F 38.8 °F 30.2 °F 57% 30.09 in 10.0 mi WSW 11.5 mph 17.3 mph N/A   Clear
10:55 PM 46.4 °F 40.4 °F 30.2 °F 53% 30.09 in 10.0 mi West 13.8 mph 23.0 mph N/A   Clear
11:15 PM 46.4 °F 39.8 °F 32.0 °F 57% 30.09 in 10.0 mi WSW 16.1 mph 24.2 mph N/A   Clear
11:35 PM 44.6 °F 37.4 °F 32.0 °F 61% 30.07 in 10.0 mi WSW 16.1 mph 26.5 mph N/A   Clear
11:55 PM 44.6 °F 35.9 °F 32.0 °F 61% 30.08 in 10.0 mi WSW 23.0 mph 29.9 mph N/A   Clear